TimeCST,TemperatureF,Dew PointF,Humidity,Sea Level PressureIn,VisibilityMPH,Wind Direction,Wind SpeedMPH,Gust SpeedMPH,PrecipitationIn,Events,Conditions,WindDirDegrees,DateUTC
12:00 AM,71,56,49,29.84,12,East,10.4,,,,,80,2014-04-03 06:00:00
12:00 AM,69.8,55.4,60,30.00,-9999.0,East,10.4,21.9,N/A,,Clear,80,2014-04-03 06:00:00
1:00 AM,69.8,55.4,60,30.00,-9999.0,East,10.4,23.0,N/A,,Clear,80,2014-04-03 07:00:00
2:00 AM,69.8,57.2,64,29.98,-9999.0,East,12.7,24.2,N/A,,Clear,80,2014-04-03 08:00:00
3:00 AM,69,57,57,29.81,12,East,15.0,,,,,90,2014-04-03 09:00:00
3:00 AM,69.8,57.2,64,29.97,-9999.0,East,15.0,-,N/A,,Clear,90,2014-04-03 09:00:00
4:00 AM,68.0,57.2,68,29.97,-9999.0,ESE,18.4,-,N/A,,Clear,110,2014-04-03 10:00:00
5:00 AM,69.8,57.2,64,29.99,-9999.0,East,10.4,21.9,N/A,,Clear,100,2014-04-03 11:00:00
6:00 AM,69,56,55,29.86,12,East,18.4,,,,Clear,100,2014-04-03 12:00:00
6:00 AM,68.0,57.2,68,30.00,-9999.0,East,18.4,-,N/A,,Clear,100,2014-04-03 12:00:00
7:00 AM,71.6,57.2,60,30.01,-9999.0,East,11.5,23.0,N/A,,Clear,100,2014-04-03 13:00:00
8:00 AM,77.0,53.6,44,30.03,-9999.0,ESE,12.7,24.2,N/A,,Clear,110,2014-04-03 14:00:00
9:00 AM,80,53,29,29.87,12,East,11.5,,,,,80,2014-04-03 15:00:00
9:00 AM,80.6,53.6,39,30.03,-9999.0,East,11.5,-,N/A,,Clear,80,2014-04-03 15:00:00
10:00 AM,84.2,53.6,35,30.03,-9999.0,East,10.4,-,N/A,,Clear,100,2014-04-03 16:00:00
11:00 AM,86.0,53.6,33,30.02,-9999.0,East,9.2,-,N/A,,Clear,100,2014-04-03 17:00:00
12:00 PM,84,55,26,29.83,12,East,11.5,,,,Scattered Clouds,90,2014-04-03 18:00:00
12:00 PM,84.2,55.4,37,30.00,6.2,East,11.5,-,N/A,,Mostly Cloudy,90,2014-04-03 18:00:00
1:00 PM,86.0,53.6,33,29.98,6.2,ESE,10.4,-,N/A,,Mostly Cloudy,120,2014-04-03 19:00:00
2:00 PM,86.0,55.4,35,29.96,6.2,East,11.5,-,N/A,,Mostly Cloudy,100,2014-04-03 20:00:00
3:00 PM,85,57,28,29.78,12,East,11.5,,,,,100,2014-04-03 21:00:00
3:00 PM,86.0,57.2,37,29.94,6.2,East,11.5,-,N/A,,Scattered Clouds,100,2014-04-03 21:00:00
4:00 PM,82.4,59.0,45,29.94,6.2,East,10.4,-,N/A,,Scattered Clouds,100,2014-04-03 22:00:00
5:00 PM,78.8,59.0,51,29.95,6.2,ESE,10.4,-,N/A,,Scattered Clouds,120,2014-04-03 23:00:00
6:00 PM,75,,,,12,ESE,10.4,,,,,120,2014-04-04 00:00:00
6:00 PM,75.2,60.8,61,29.97,6.2,ESE,10.4,-,N/A,,Scattered Clouds,120,2014-04-04 00:00:00
7:00 PM,73.4,62.6,69,29.99,6.2,ESE,10.4,-,N/A,,Partly Cloudy,110,2014-04-04 01:00:00
8:00 PM,71.6,62.6,73,30.01,6.2,East,9.2,-,N/A,,Partly Cloudy,90,2014-04-04 02:00:00
9:00 PM,71,61,64,29.90,12,East,8.1,,,,,100,2014-04-04 03:00:00
10:00 PM,71.6,62.6,73,30.03,-9999.0,East,6.9,-,N/A,,Clear,80,2014-04-04 04:00:00
11:00 PM,71.6,62.6,73,30.01,-9999.0,ESE,10.4,-,N/A,,Clear,110,2014-04-04 05:00:00